Regional Weather Roundup
Issued by NWS

Home | Current Version | Previous Version | Graphics & Text | Print | Product List | Glossary On
Versions: 1 2 3 4 5 6 7 8 9 10 11 12 13 14 15 16 17 18 19 20 21 22 23 24 25 26 27 28 29 30 31 32 33 34 35 36 37 38 39 40 41 42 43 44 45 46 47 48 49 50
000
ASUS43 KFSD 291002
RWRSD

WEATHER ROUNDUP FOR SOUTH DAKOTA
NATIONAL WEATHER SERVICE SIOUX FALLS SD
500 AM CDT THU SEP 29 2016

NOTE: "FAIR" INDICATES FEW OR NO CLOUDS BELOW 12,000 FEET WITH NO
SIGNIFICANT WEATHER AND/OR OBSTRUCTIONS TO VISIBILITY.


SDZ001>005-009-010-012>017-291100-
NORTHWEST AND NORTH CENTRAL SOUTH DAKOTA

CITY           SKY/WX    TMP DP  RH WIND       PRES   REMARKS
BUFFALO          N/A     50  39  66 E9        30.23F
FAITH            N/A     45  42  89 S15       30.33F
MOBRIDGE       CLEAR     47  43  86 SE7       30.36S
$$

SDZ012>016-024>037-041>051-057-063-072>074-291100-
SOUTHWEST AND SOUTH CENTRAL SOUTH DAKOTA

CITY           SKY/WX    TMP DP  RH WIND       PRES   REMARKS
RAPID CTY ARPT CLEAR     41  34  76 SE5       30.32S
PIERRE         CLEAR     41  39  93 SE5       30.38R
CUSTER         CLEAR     43  35  73 CALM      30.40S
PHILIP         CLEAR     40  39  97 E5        30.35S
PINE RIDGE     CLEAR     51  37  58 SW9       30.35S
WINNER         FAIR      46  41  82 S7        30.40R
$$

SDZ004>011-016>023-039-040-291100-
NORTHEAST SOUTH DAKOTA

CITY           SKY/WX    TMP DP  RH WIND       PRES   REMARKS
ABERDEEN       CLOUDY    38  35  89 N3        30.43R
WATERTOWN      CLOUDY    43  40  89 CALM      30.43R
SISSETON         N/A     36  35  96 CALM      30.44R
$$

SDZ017-020-022-023-036>040-048>070-291100-
SOUTHEAST SOUTH DAKOTA

CITY           SKY/WX    TMP DP  RH WIND       PRES   REMARKS
SIOUX FALLS    CLOUDY    41  40  96 CALM      30.43R
HURON          CLOUDY    37  37 100 CALM      30.42R
CHAMBERLAIN    CLEAR     43  42  98 CALM      30.40R
MITCHELL       CLOUDY    39  39 100 CALM      30.42S
YANKTON        CLOUDY    39  39 100 N3        30.41R
$$

ABBREVIATIONS USED IN REMARKS
   TC - TEMPERATURE IN CELSIUS
  WCI - WIND CHILL INDEX
   HX - HEAT INDEX
  VSB - VISIBILITY





USA.gov is the U.S. government's official web portal to all federal, state and local government web resources and services.